Preview of NWS' New Version of Forecast
This preview is not operational and should not be used for support decisions.

Regional Weather Roundup (RWR)

Issued by National Weather Service (NWS)

                            
000
ASUS45 KCYS 190510
RWRWY 

WYOMING REGIONAL WEATHER ROUNDUP
NATIONAL WEATHER SERVICE CHEYENNE WY
1000 PM MST MON FEB 18 2019

NOTE:  "FAIR" INDICATES FEW OR NO CLOUDS BELOW 12,000 FEET
WITH NO SIGNIFICANT WEATHER AND/OR OBSTRUCTIONS TO VISIBILITY.

WYZ001-190600-
...YELLOWSTONE NATIONAL PARK...
  
CITY           SKY/WX    TMP DP  RH WIND       PRES   REMARKS
LK YELLOWSTONE   N/A      4   0  83 CALM      29.84S                  
W YELLOWSTONE  NOT AVBL                                               

$$
WYZ002>013-054>058-071-098>099-190600-
...NORTHERN WYOMING...
  
CITY           SKY/WX    TMP DP  RH WIND       PRES   REMARKS
JACKSON        MOCLDY    -6 -10  83 N9        29.91S WCI -23          
CODY           LGT SNOW   2  -2  83 NE6       30.04R FOG     WCI  -9  
GREYBULL       CLOUDY     5   0  79 CALM      30.11S                  
WORLAND        CLEAR      2   0  91 NE3       30.09R                  
SHERIDAN       PTCLDY     0  -6  76 N5        30.12F WCI -10          
BUFFALO        PTCLDY     2  -4  76 N5        30.02F WCI  -8          
GILLETTE       CLEAR     -1  -8  72 S14       30.09F WCI -20          
HULETT         FAIR      -4  -9  77 MISG      30.14F                  
NEWCASTLE        N/A     -4  -9  77 CALM      30.16F                  

$$
WYZ014>020-022>026-101>103-190600-
...CENTRAL WYOMING...
  
CITY           SKY/WX    TMP DP  RH WIND       PRES   REMARKS
BIG PINEY      PTCLDY   -14 -18  82 E3        29.89S                  
PINEDALE       PTCLDY   -20 -26  76 NW5       29.90S WCI -33          
DUBOIS         FLURRIES  -2  -6  84 CALM      29.85S                  
LANDER         CLOUDY    13   5  70 N6        29.95S WCI   4          
RIVERTON       CLOUDY    13   3  64 N6        29.97S WCI   4          
CASPER         CLEAR      5   1  83 E9        29.99S WCI  -9          
DOUGLAS          N/A      8   4  83 MISG      30.03F                  

$$
WYZ021-027>030-104>119-190600-
...SOUTHERN WYOMING...
  
CITY           SKY/WX    TMP DP  RH WIND       PRES   REMARKS
EVANSTON       MOCLDY     1  -3  83 S3        29.88S                  
KEMMERER       CLEAR      1  -4  78 CALM      29.87S                  
FORT BRIDGER   CLEAR      1   0  92 NE10      29.91S WCI -14          
ROCK SPRINGS   PTCLDY     3  -1  83 W6        29.89S WCI  -8          
DIXON          FLURRIES   9   4  80 W3        29.88F                  
RAWLINS        CLOUDY     7   3  84 NE10      29.87S WCI  -8          
SARATOGA       CLOUDY    12   9  85 NW6       29.84F WCI   3          
LARAMIE        CLOUDY     6   2  83 SE23G31   29.83F WCI -15          
CHEYENNE       LGT SNOW   9   7  92 SE13      29.96F FOG     WCI  -7  
TORRINGTON     CLOUDY    11   7  84 SE16      30.12F WCI  -6          
PINE BLUFFS    FLURRIES  10   7  85 SE13      30.06F WCI  -5          

$$